Flag for Norway Weather past 2 weeks in Longyearbyen, Svalbard, Norway

Now
48 °F

Partly sunny.


Feels Like: 45 °F
Forecast: 46 / 49 °F
Wind: 8 mph from West

Location: Svalbard Lufthavn

Current Time: Aug 4, 2015 at 12:16:24 PM

Latest Report: Aug 4, 2015 at 11:50 AM


Visibility: N/A

Pressure: 30.21 "Hg

Humidity: 82%

Dew point: 43 °F

Location of LongyearbyenLocation

Historic Weather in Longyearbyen — Graph

°F

Longyearbyen temperature yesterday

Maximum temperature yesterday: 57 °F (at 10:50 AM)
Minimum temperature yesterday: 48 °F (at 10:50 PM)
Average temperature yesterday: 52 °F

Past Weeks' High & Low Weather Summary

 TemperatureHumidityPressure
High64 °F (Jul 30, 4:50 PM)87% (Jul 25, 3:50 AM)30.21 "Hg (Jul 25, 3:50 AM)
Low39 °F (Jul 28, 4:50 PM)31% (Jul 31, 2:50 PM)29.59 "Hg (Jul 24, 7:50 AM)
Average50 °F63%29.98 "Hg
* Reported Jul 20 10:50 AM — Aug 4 10:50 AM, Longyearbyen, Weather by CustomWeather, © 2015

Note: Actual official high and low records may vary slightly from our data, if they occured in-between our weather recording intervals... More about our weather records

Advertising

Longyearbyen weather history for previous 24 hours

 ConditionsComfort  
Time TempWeatherWind HumidityBarometerVisibility
10:50 AM
Tue, Aug 4
48 °FPartly sunny.8 mph82%30.21 "HgN/A
9:50 AM48 °FPartly sunny.9 mph82%30.21 "HgN/A
8:50 AM48 °FPartly sunny.10 mph82%30.18 "HgN/A
7:50 AM48 °FPartly sunny.10 mph82%30.18 "HgN/A
6:50 AM46 °FPartly sunny.10 mph87%30.18 "HgN/A
5:50 AM48 °FPartly sunny.12 mph82%30.18 "HgN/A
4:50 AM48 °FPartly sunny.10 mph82%30.18 "HgN/A
3:50 AM48 °FPartly sunny.12 mph82%30.18 "HgN/A
2:50 AM48 °FPartly sunny.12 mph82%30.18 "HgN/A
1:50 AM48 °FBroken clouds.12 mph82%30.15 "HgN/A
12:50 AM48 °FLow clouds.13 mph82%30.15 "HgN/A
11:50 PM
Mon, Aug 3
48 °FPartly sunny.14 mph82%30.15 "HgN/A
10:50 PM48 °FPartly sunny.14 mph82%30.15 "HgN/A
9:50 PM50 °FPartly sunny.16 mph76%30.15 "HgN/A
8:50 PM50 °FPartly sunny.16 mph76%30.12 "HgN/A
7:50 PM50 °FPartly sunny.17 mph76%30.12 "HgN/A
6:50 PM50 °FPartly sunny.16 mph71%30.12 "HgN/A
5:50 PM50 °FSunny.20 mph71%30.12 "Hg10 mi
4:50 PM52 °FSunny.18 mph62%30.12 "Hg10 mi
3:50 PM52 °FSunny.18 mph62%30.09 "Hg10 mi
1:50 PM57 °FSunny.15 mph44%30.09 "Hg10 mi
12:50 PM57 °FSunny.9 mph48%30.09 "Hg10 mi
Weather by CustomWeather, © 2015

See weather overviewHow to use our weather pages